Location: Vancouver
(49.2500°N, 123.1330°W)
Time: 17:06:41
(UTC-08:00)

Cosmos 676 Rocket - Visible Passes

Search period start: 26 January 2015 00:00
Search period end: 05 February 2015 00:00
Orbit: 756 x 784 km, 74.0° (Epoch: 26 January)

Date Brightness Start Highest point End Pass type
(mag) Time Alt. Az. Time Alt. Az. Time Alt. Az.
26 Jan 4.2 17:34:03 10° S 17:39:11 55° ESE 17:44:20 10° NNE visible
26 Jan 5.9 19:17:11 10° WSW 19:21:40 27° NW 19:26:06 10° N visible
27 Jan 5.3 18:40:06 10° SW 18:45:03 39° WNW 18:49:59 10° NNE visible
28 Jan 4.6 18:03:20 10° SW 18:08:33 60° WNW 18:13:45 10° NNE visible
28 Jan 6.6 19:49:18 10° WNW 19:51:54 13° NW 19:54:21 10° NNW visible
29 Jan 6.4 19:11:20 10° W 19:15:04 19° NW 19:18:40 10° N visible
30 Jan 5.9 18:33:53 10° WSW 18:38:20 26° NW 18:42:43 10° N visible
31 Jan 5.4 17:56:47 10° SW 18:01:42 38° WNW 18:06:35 10° NNE visible
01 Feb 6.6 19:06:03 10° WNW 19:08:34 13° NW 19:10:55 10° NNW visible
02 Feb 6.4 18:28:04 10° W 18:31:43 18° NW 18:35:16 10° N visible
03 Feb 5.9 17:50:35 10° WSW 17:54:59 26° NW 17:59:18 10° N visible
